K198U  W84  0.0   0.0     K20AI  W84  0.1-  0.1+    K20AM  W84  0.0   0.0  
K198U  W84  0.0   0.0     K20AI  W84  0.1+  0.0     K20AM  W84  0.0   0.1- 
K199S  W84  0.2+  0.0     K20AK  W84  0.1+  0.2+    K2199  W84  0.3+  0.0  
K199S  W84  0.2-  0.0     K20AK  W84  0.1-  0.1-    K2199  W84  0.2-  0.0  
2019 QM111                                                                      
Epoch 2023 Sept. 13.0 TT = JDT 2460200.5                Pike                    
M 262.07408              (2000.0)            P               Q                  
n   0.00323166     Peri.   36.37065     -0.27964294     -0.95906164             
a  45.3091369      Node    69.90596     +0.86926252     -0.27268973             
e   0.1062689      Incl.    2.72987     +0.40765487     -0.07642702             
P 305              H    9.06          G   0.15           U   7                  
Residuals in seconds of arc
K198U  W84  0.0   0.1+    K199S  W84  0.6-  0.3-    K21A6  W84  0.1+  0.0  
K198U  W84  0.0   0.2-    K2199  W84  0.1-  0.4+    K21A6  W84  0.1-  0.0  
K199S  W84  0.5+  0.5+    K2199  W84  0.1+  0.4-    
2019 QN111                                                                      
Epoch 2023 Sept. 13.0 TT = JDT 2460200.5                Pike                    
M 126.92056              (2000.0)            P               Q                  
n   0.00324168     Peri.  154.80335     -0.68588366     +0.72639569             
a  45.2157158      Node    71.85774     -0.67521395     -0.61283967             
e   0.0312103      Incl.    2.63796     -0.27138482     -0.31108976             
P 304              H    8.80          G   0.15           U   6                  
Residuals in seconds of arc
K198U  W84  0.0   0.0     K20AK  W84  0.1+  0.1-    K21A6  W84  0.1+  0.2+ 
K198U  W84  0.0   0.0     K20AK  W84  0.2-  0.1+    K21A6  W84  0.1-  0.2- 
K199S  W84  0.0   0.1-    K20AM  W84  0.1+  0.0     
K199S  W84  0.1+  0.1+    K20AM  W84  0.0   0.0     
2019 QO111                                                                      
Epoch 2023 Sept. 13.0 TT = JDT 2460200.5                Pike                    
M   2.96205              (2000.0)            P               Q                  
n   0.00235631     Peri.  351.39181     +0.99149106     +0.13001353             
a  55.9303961      Node     1.19667     -0.09310992     +0.74308185             
e   0.2322636      Incl.   18.07092     -0.09097268     +0.65644942             
P 418              H    7.48          G   0.15           U   7                  
Residuals in seconds of arc
K198U  W84  0.0   0.0     K199S  W84  0.1-  0.0     K21A6  W84  0.0   0.0  
K198U  W84  0.0   0.0     K2199  W84  0.0   0.0     K21A6  W84  0.0   0.0  
K199S  W84  0.1+  0.0     K2199  W84  0.0   0.0     
2019 QP111                                                                      
Epoch 2023 Sept. 13.0 TT = JDT 2460200.5                Pike                    
M 256.85043              (2000.0)            P               Q                  
n   0.00352905     Peri.  357.87946     -0.18768725     -0.98079724             
a  42.7265351      Node   102.93527     +0.90197603     -0.19346804             
e   0.0073472      Incl.    3.11798     +0.38886083     -0.02463504             
P 279              H    8.76          G   0.15           U   6                  
Residuals in seconds of arc
K198U  W84  0.0   0.0     K199S  W84  0.0   0.1+    K2199  W84  0.2+  0.2+ 
K198U  W84  0.0   0.0     K20AK  W84  0.2+  0.1-    K2199  W84  0.2-  0.2- 
K199S  W84  0.0   0.1-    K20AK  W84  0.2-  0.0     
2019 QQ111                                                                      
Epoch 2023 Sept. 13.0 TT = JDT 2460200.5                Pike                    
M 290.38820              (2000.0)            P               Q                  
n   0.00332633     Peri.  334.65017     +0.27765885     -0.95904349             
a  44.4452998      Node    99.18864     +0.89079326     +0.23517702             
e   0.0666393      Incl.    3.25469     +0.35971229     +0.15788397             
P 296              H    9.75          G   0.15           U   7                  
Residuals in seconds of arc
K198U  W84  0.1+  0.0     K199S  W84  0.3+  0.1+    K20AM  W84  0.2-  0.1+ 
K198U  W84  0.0   0.2-    K20AK  W84  0.2+  0.0     K20AM  W84  0.3+  0.1- 
K199S  W84  0.4-  0.1+    K20AK  W84  0.2-  0.1+    
2019 QR111                                                                      
Epoch 2023 Sept. 13.0 TT = JDT 2460200.5                Pike                    
M 337.48250              (2000.0)            P               Q                  
n   0.00306535     Peri.  246.73283     +0.83168588     -0.55090075             
a  46.9334962      Node   146.57727     +0.54425591     +0.78412188             
e   0.2206176      Incl.    7.23116     +0.10992769     +0.28576430             
P 322              H    9.16          G   0.15           U   8                  
Residuals in seconds of arc
K198U  W84  0.0   0.0     K199S  W84  0.1-  0.1+    K20AM  W84  0.0   0.1+ 
K198U  W84  0.0   0.0     K20AK  W84  0.1-  0.0     K20AM  W84  0.0   0.1- 
K199S  W84  0.0   0.1-    K20AK  W84  0.1+  0.0     
2020 UC74                                                                       
Epoch 2023 Sept. 13.0 TT = JDT 2460200.5                Pike                    
M   5.78601              (2000.0)            P               Q                  
n   0.00332222     Peri.  185.14729     +0.98586108     +0.14011398             
a  44.4819371      Node   165.76957     -0.13728439     +0.98986073             
e   0.1318822      Incl.   21.95364     -0.09607776     +0.02331965             
P 297              H    9.58          G   0.15           U   6                  
Residuals in seconds of arc
K198U  W84  0.0   0.1+    K20AK  W84  0.0   0.0     K219T  W84  0.0   0.2+ 
K198U  W84  0.0   0.1-    K20AM  W84  0.1-  0.1+    K219T  W84  0.0   0.2- 
K20AK  W84  0.1+  0.1-    K20AM  W84  0.0   0.0     
2020 UD74                                                                       
Epoch 2023 Sept. 13.0 TT = JDT 2460200.5                Pike                    
M 144.23017              (2000.0)            P               Q                  
n   0.00395996     Peri.   53.84577     -0.83561457     +0.54492749             
a  39.5678190      Node   158.90289     -0.54522085     -0.80738253             
e   0.0024618      Incl.   11.10008     -0.06695161     -0.22624649             
P 249              H    9.14          G   0.15           U   7                  
Residuals in seconds of arc
K199S  W84  0.1-  0.0     K20AK  W84  0.2+  0.2+    K219S  W84  0.0   0.1- 
K199S  W84  0.1+  0.1-    K20AK  W84  0.1-  0.2-    K219S  W84  0.0   0.1+ 
K20AG  W84  0.0   0.0     K20AM  W84  0.0   0.0     
K20AG  W84  0.0   0.1-    K20AM  W84  0.1-  0.1+    
2020 UE74                                                                       
Epoch 2023 Sept. 13.0 TT = JDT 2460200.5                Pike                    
M  69.71599              (2000.0)            P               Q                  
n   0.00336556     Peri.  212.17448     +0.16822894     +0.98469293             
a  44.0992079      Node    67.54521     -0.89363487     +0.17186870             
e   0.0668884      Incl.    2.82784     -0.41607180     +0.02899977             
P 293              H    9.29          G   0.15           U   6                  
Residuals in seconds of arc
K198U  W84  0.1+  0.0     K20AK  W84  0.3+  0.3+    K2199  W84  0.0   0.2- 
K198U  W84  0.0   0.1-    K20AK  W84  0.2-  0.0     K2199  W84  0.0   0.1+ 
K199S  W84  0.3+  0.1+    K20AM  W84  0.0   0.1-    
K199S  W84  0.3-  0.1-    K20AM  W84  0.1-  0.0     
2021 RR237                                                                      
Epoch 2023 Sept. 13.0 TT = JDT 2460200.5                Pike                    
M 319.66669              (2000.0)            P               Q                  
n   0.00343442     Peri.   45.30933     +0.71979414     -0.69412809             
a  43.5077999      Node   358.55376     +0.49020507     +0.51751283             
e   0.0895726      Incl.   21.10387     +0.49152353     +0.50036653             
P 287              H    9.41          G   0.15           U   6                  
Residuals in seconds of arc
K198U  W84  0.0   0.1+    K20AG  W84  0.1-  0.1+    K21A7  W84  0.1+  0.0  
K198U  W84  0.0   0.1-    K2199  W84  0.0   0.5+    K21A7  W84  0.0   0.1- 
K20AG  W84  0.1+  0.1-    K2199  W84  0.1-  0.4-    
M. P. C. Staff               (C) Copyright 2023 MPC           M.P.E.C. 2023-W157
    
    
More information about the Iaude
mailing list